TimeCST,TemperatureF,Dew PointF,Humidity,Sea Level PressureIn,VisibilityMPH,Wind Direction,Wind SpeedMPH,Gust SpeedMPH,PrecipitationIn,Events,Conditions,WindDirDegrees,DateUTC
12:56 AM,27.1,21.0,78,30.04,10.0,SSW,6.9,-,N/A,,Clear,200,2014-01-26 06:56:00
1:56 AM,25.2,21.0,84,30.02,10.0,Calm,Calm,-,N/A,,Clear,0,2014-01-26 07:56:00
2:56 AM,25.2,21.0,84,30.02,10.0,Calm,Calm,-,N/A,,Clear,0,2014-01-26 08:56:00
3:56 AM,23.0,20.1,89,30.01,10.0,Calm,Calm,-,N/A,,Clear,0,2014-01-26 09:56:00
4:56 AM,22.1,20.1,92,30.00,10.0,Calm,Calm,-,N/A,,Clear,0,2014-01-26 10:56:00
5:56 AM,22.1,19.0,88,30.00,10.0,Calm,Calm,-,N/A,,Clear,0,2014-01-26 11:56:00
6:56 AM,24.1,20.1,85,30.01,10.0,Calm,Calm,-,N/A,,Clear,0,2014-01-26 12:56:00
7:56 AM,30.0,24.1,79,30.01,10.0,Calm,Calm,-,N/A,,Clear,0,2014-01-26 13:56:00
8:56 AM,37.9,27.1,65,30.02,10.0,SSW,10.4,-,N/A,,Clear,210,2014-01-26 14:56:00
9:56 AM,45.9,27.1,48,30.01,10.0,SSW,13.8,21.9,N/A,,Clear,210,2014-01-26 15:56:00
10:56 AM,47.8,26.1,43,30.01,10.0,SW,17.3,24.2,N/A,,Clear,220,2014-01-26 16:56:00
11:56 AM,50.9,27.1,40,29.97,10.0,SW,12.7,20.7,N/A,,Clear,220,2014-01-26 17:56:00
12:56 PM,52.0,27.1,38,29.94,10.0,SSW,10.4,-,N/A,,Clear,200,2014-01-26 18:56:00
1:56 PM,54.9,27.1,34,29.91,10.0,SSW,11.5,-,N/A,,Clear,200,2014-01-26 19:56:00
2:56 PM,52.9,28.0,38,29.90,10.0,SSW,15.0,-,N/A,,Clear,210,2014-01-26 20:56:00
3:56 PM,54.0,29.1,39,29.89,10.0,South,10.4,-,N/A,,Clear,190,2014-01-26 21:56:00
4:56 PM,50.9,29.1,43,29.90,10.0,South,8.1,-,N/A,,Clear,180,2014-01-26 22:56:00
5:56 PM,48.9,30.0,48,29.91,10.0,South,8.1,-,N/A,,Clear,190,2014-01-26 23:56:00
6:56 PM,48.9,29.1,46,29.91,10.0,South,10.4,-,N/A,,Mostly Cloudy,190,2014-01-27 00:56:00
7:56 PM,48.9,28.0,44,29.91,10.0,South,8.1,-,N/A,,Mostly Cloudy,180,2014-01-27 01:56:00
8:56 PM,48.9,28.0,44,29.90,10.0,South,10.4,-,N/A,,Overcast,180,2014-01-27 02:56:00
9:56 PM,48.9,29.1,46,29.88,10.0,South,9.2,-,N/A,,Mostly Cloudy,170,2014-01-27 03:56:00
10:56 PM,48.9,29.1,46,29.89,10.0,South,9.2,-,N/A,,Overcast,190,2014-01-27 04:56:00
11:56 PM,48.9,29.1,46,29.90,10.0,SW,8.1,-,N/A,,Scattered Clouds,220,2014-01-27 05:56:00